This is the latest recevied weather packets stored in our database for station/object W6MAF. If no packets are shown the sender has not sent any weather packets the latest 10 day(s).
| Time | Temp. | Humidity | Pressure | Rain* | Wind** | Luminosity | Snow |
|---|---|---|---|---|---|---|---|
| 1777944584 | 10.56° C | 56% | - | 0 mm | 6.71 m/s, 188° | - | - |
| 1777944286 | 10.56° C | 56% | - | 0 mm | 6.71 m/s, 207° | - | - |
| 1777943989 | 10.56° C | 56% | - | 0 mm | 7.15 m/s, 203° | - | - |
| 1777943691 | 10.56° C | 56% | - | 0 mm | 6.26 m/s, 200° | - | - |
| 1777943393 | 10.56° C | 56% | - | 0 mm | 9.39 m/s, 187° | - | - |
| 1777943093 | 10.56° C | 56% | - | 0 mm | 8.94 m/s, 187° | - | - |
| 1777942200 | 11.11° C | 53% | - | 0 mm | 10.73 m/s, 193° | - | - |
| 1777941902 | 11.11° C | 52% | - | 0 mm | 8.94 m/s, 186° | - | - |
| 1777941604 | 11.11° C | 50% | - | 0 mm | 8.94 m/s, 201° | - | - |
| 1777941303 | 11.11° C | 52% | - | 0 mm | 7.15 m/s, 177° | - | - |
| 1777941006 | 11.11° C | 50% | - | 0 mm | 9.83 m/s, 197° | - | - |
| 1777940760 | 11.67° C | 49% | - | 0 mm | 9.83 m/s, 184° | - | - |
| 1777940708 | 11.67° C | 49% | - | 0 mm | 9.83 m/s, 184° | - | - |
| 1777940411 | 11.67° C | 47% | - | 0 mm | 8.49 m/s, 201° | - | - |
| 1777940113 | 11.67° C | 46% | - | 0 mm | 7.6 m/s, 183° | - | - |
| 1777939815 | 11.67° C | 46% | - | 0 mm | 9.83 m/s, 194° | - | - |
| 1777939514 | 11.67° C | 45% | - | 0 mm | 9.83 m/s, 211° | - | - |
| 1777939217 | 12.22° C | 44% | - | 0 mm | 8.05 m/s, 184° | - | - |
| 1777938919 | 12.22° C | 44% | - | 0 mm | 7.6 m/s, 191° | - | - |
| 1777938621 | 12.22° C | 42% | - | 0 mm | 6.71 m/s, 193° | - | - |
| 1777938324 | 12.78° C | 40% | - | 0 mm | 9.39 m/s, 188° | - | - |
| 1777938027 | 12.78° C | 38% | - | 0 mm | 8.05 m/s, 191° | - | - |
| 1777937726 | 12.78° C | 38% | - | 0 mm | 7.6 m/s, 218° | - | - |
| 1777937427 | 12.78° C | 38% | - | 0 mm | 6.71 m/s, 200° | - | - |
| 1777936832 | 12.78° C | 38% | - | 0 mm | 6.71 m/s, 194° | - | - |
* Rain latest hour (hover to see other rain measurements)
** Current wind speed in m/s (hover to see current wind gust speed)